Weather History for KBDL - January, 2013

Change the Weather History Date:

Wednesday, January 9, 2013

  Actual Average Record
Temperature  
Mean Temperature 32 °F 26 °F  
Max Temperature 44 °F 34 °F 64 °F (1937)
Min Temperature 19 °F 18 °F -9 °F (1968)
Degree Days  
Heating Degree Days 33 39  
Month to date heating degree days 336 348  
Since 1 July heating degree days 2375 2592  
Cooling Degree Days 0 0  
Month to date cooling degree days 0 0  
Year to date cooling degree days 0 0  
Moisture  
Dew Point 26 °F    
Average Humidity 77    
Maximum Humidity 92    
Minimum Humidity 62    
Precipitation  
Precipitation T in 0.10 in 1.51 in (1978)
Month to date precipitation 0.01 0.90  
Year to date precipitation 0.01 0.90  
Snow  
Snow 0.00 in 0.40 in 6.60 in (1974)
Month to date snowfall 0.2 3.5  
Since 1 July snowfall 16.0 12.9  
Snow Depth 3.00 in    
Sea Level Pressure  
Sea Level Pressure 30.24 in    
Wind  
Wind Speed 5 mph (SSW)    
Max Wind Speed 17 mph    
Max Gust Speed 23 mph    
Visibility 8 miles    
Events      
T = Trace of Precipitation, MM = Missing Value Source: NWS Daily Summary

Daily Weather History Graph

Daily Weather History Graph

Search for Another Location

Airport or City:

Trip Planner

Search our weather history database for the weather conditions in past years. The results will help you decide how hot, cold, wet, or windy it might be!

Date:

Astronomy

Jan. 09, 2013 Rise Set
Actual Time 7:18 AM EST 4:38 PM EST
Civil Twilight 6:46 AM EST 5:09 PM EST
Nautical Twilight 6:12 AM EST 5:44 PM EST
Astronomical Twilight 5:38 AM EST 6:17 PM EST
Moon 4:54 AM EST (1/9) 2:36 PM EST (1/9)
Length of Visible Light 10h 22m
Length of Day
9h 20m
Waning Crescent, 6% of the Moon is Illuminated
Jan 9
Waning Crescent
Jan 11
New
Jan 18
First Quarter
Jan 26
Full
Feb 3
Last Quarter

Hourly Weather History & Observations

Time (EST) Temp. Windchill Dew Point Humidity Pressure Visibility Wind Dir Wind Speed Gust Speed Precip Events Conditions
12:51 AM 26.1 °F - 21.9 °F 84% 30.36 in 10.0 mi Calm Calm - N/A   Mostly Cloudy
1:51 AM 26.1 °F - 23.0 °F 88% 30.36 in 10.0 mi Calm Calm - N/A   Mostly Cloudy
2:51 AM 24.1 °F - 21.9 °F 91% 30.37 in 10.0 mi Calm Calm - N/A   Partly Cloudy
3:51 AM 21.9 °F - 19.0 °F 89% 30.36 in 8.0 mi Calm Calm - N/A   Partly Cloudy
4:51 AM 24.1 °F - 19.9 °F 84% 30.36 in 8.0 mi Calm Calm - N/A   Scattered Clouds
5:51 AM 21.0 °F - 19.0 °F 92% 30.37 in 8.0 mi Calm Calm - N/A   Mostly Cloudy
6:51 AM 19.9 °F - 18.0 °F 92% 30.38 in 10.0 mi Calm Calm - N/A   Partly Cloudy
7:51 AM 19.9 °F - 17.1 °F 89% 30.39 in 5.0 mi Calm Calm - N/A   Mostly Cloudy
8:51 AM 26.6 °F - 23.0 °F 86% 30.37 in 5.0 mi Calm Calm - N/A   Mostly Cloudy
9:51 AM 28.0 °F - 23.0 °F 81% 30.38 in 6.0 mi Calm Calm - N/A   Haze
10:51 AM 30.0 °F - 25.0 °F 82% 30.34 in 6.0 mi Calm Calm - N/A   Haze
11:51 AM 32.0 °F 27.5 °F 26.6 °F 80% 30.24 in 5.0 mi South 4.6 mph - N/A   Haze
12:51 PM 35.1 °F 30.1 °F 26.1 °F 70% 30.24 in 7.0 mi SW 5.8 mph - N/A   Overcast
1:51 PM 36.0 °F 30.3 °F 27.0 °F 70% 30.21 in 6.0 mi SSE 6.9 mph - N/A   Haze
2:51 PM 37.0 °F 31.0 °F 28.0 °F 70% 30.16 in 5.0 mi SSE 8.1 mph - N/A   Haze
3:51 PM 39.0 °F 32.8 °F 30.0 °F 70% 30.08 in 6.0 mi South 9.2 mph - 0.00 in   Haze
4:51 PM 39.9 °F 32.9 °F 32.0 °F 73% 30.06 in 6.0 mi South 11.5 mph - N/A   Haze
5:51 PM 42.1 °F 34.2 °F 32.0 °F 67% 30.04 in 9.0 mi SSW 16.1 mph 23.0 mph N/A   Scattered Clouds
6:51 PM 42.8 °F 36.2 °F 32.0 °F 66% 30.06 in 9.0 mi SW 12.7 mph - N/A   Partly Cloudy
7:51 PM 43.0 °F 37.7 °F 32.0 °F 65% 30.07 in 10.0 mi SW 9.2 mph - N/A   Clear
8:51 PM 44.1 °F 38.6 °F 32.0 °F 63% 30.07 in 10.0 mi SW 10.4 mph 17.3 mph N/A   Clear
9:51 PM 43.0 °F 36.4 °F 32.0 °F 65% 30.09 in 10.0 mi WSW 12.7 mph - N/A   Clear
10:51 PM 42.1 °F 37.1 °F 30.9 °F 65% 30.11 in 10.0 mi West 8.1 mph - N/A   Clear
11:51 PM 42.1 °F 37.1 °F 26.1 °F 53% 30.11 in 10.0 mi West 8.1 mph - N/A   Partly Cloudy